Погода в Борисове

Погода в Борисове : погода сейчас, прогноз погоды и архив. Всё, что Вы хотите узнать о погоде в Борисове!

Хотите узнать прогноз погоды в Борисове? Тогда Вам сюда: Погода в Борисове

Поиск расширенной информации на нашем сайте:

Другие новости

Новости СМИ2

Главная страница сайта

Новости сайта

02.10.2013

Напоминаем, что на нашем новом сайте вы можете получить высокодетализированные прогнозы погоды по пунктам России, СНГ и мира (включающие важные для авиации метеовеличины, такие как направление и скорость ветра, видимость, явления погоды, количество и форма облачности, нижняя и верхняя граница облачности), а также ознакомиться с разнообразными материалами по авиационной метеорологии и подборкой полезных ссылок на эту тему.

Сайт Метеоцентр.Азия посвящён разработке технологий оптимизации авиаметеорологического обслуживания, включая проектирование и перспективное создание нескольких автоматизированных авиаметеорологических систем:
- система выпуска высокодетальных прогностических карт явлений погоды для нижнего воздушного пространства по России и ближнему зарубежью;
- система верификации прогнозов TAF (выпускаемых синоптиками официальных АМСГ РФ и ближнего зарубежья) и AUTOTAF (выпускаемых сайтом Метеоцентр.Азия) - выявление ошибок, онлайн-сопоставление с фактической погодой METAR, автоматическое внесение коррективов в прогнозы при резком отклонении фактической погоды от прогноза, подсчёт оправдываемости прогнозов по элементам и в целом;
- система обработки, анализа и отображения авиаметеорологической информации для применения провайдерами метеорологической информации.


Погода в Борисове - сегодня

Время (UTC), дата Ветер
(°,м/с) 
Видим.   Явления Облачность Т
(°С)
Тd
(°С)
f(%) Тe
(°С)
Pmin
(гПа)
dP
(гПа)
Po
(мм)
O2
(г/м3)
Тmin Tmax R s Состояние
почвы
18 25.05.17 330 (СЗ) 35000 м    4/0 верхняя 
[Ci sp]
+16.8 +4.4 44 +18  1012.4  0.2  743  281    +20.7       
21 25.05.17 тихо ()   35000 м    ясно 
+10.6 +6.2 74 +11  1013.2  0.3  743  287           
00 26.05.17 270 (З) 35000 м    6/6 1000 м 
[Sc]
+10.3 +6.3 76 +11  1013.1  -0.1  743  287           
03 26.05.17 280 (З) 35000 м    ясно 
+9.2 +6.9 86 +10  1013.2  743  288           
06 26.05.17 270 (З) 19000 м    8/4 600 м верхняя 
[Sc|Ci]
+15.6 +10.1 70 +17  1013  0.3  743  281  +8.3         
09 26.05.17 300 (СЗ) 35000 м    8/8 700 м верхняя 
[Sc|Ci fib]
+16.5 +9 61 +17  1013.5  0.6  744  281           
12 26.05.17 280 (З) 26000 м    8/8 600 м средняя 
[Cu Sc|Ac trans]
+18.4 +7 47 +19  1013.2  -0.1  743  280           
15 26.05.17 350 (С) 35000 м    9/9 600 м 
[Sc]
+16.8 +5.5 47 +17  1013.3  -0.1  743  281           
18 26.05.17 340 (С) 30000 м    1/1 600 м 
[Sc]
+14.9 +5.1 52 +16  1014.2  0.7  744  283    +19       
21 26.05.17 330 (СЗ) 35000 м    3/1 600 м верхняя 
[Sc|Ci fib]
+11 +6 71 +12  1016  1.5  745  288           
00 27.05.17 300 (СЗ) 35000 м    10/10 600 м 
[Sc]
+10.1 +6.4 78 +11  1017  0.9  746  289           
09 27.05.17 360 (С) 35000 м    6/6 1000 м 
[Sc]
+17.2 +5.1 45 +18  1019.2  0.6  748  283           
12 27.05.17 300 (СЗ) 30000 м    8/8 1000 м 
[Sc]
+19.6 +4.7 37 +20  1019  748  280           
15 27.05.17 330 (СЗ) 35000 м    8/5 1000 м верхняя 
[Sc|Ci fib]
+20.7 +4.8 35 +21  1018.2  -0.7  747  279           
18 27.05.17 310 (СЗ) 13000 м    9/0 верхняя 
[Ci fib]
+17.5 +4.8 43 +19  1018.8  0.4  748  282    +21.3       
21 27.05.17 290 (З) 35000 м    3/3 1000 м 
[Sc]
+14 +5 55 +15  1020.1  0.9  748  286           
00 28.05.17 260 (З) 35000 м    9/9 1000 м 
[Sc]
+12.6 +6.7 67 +14  1020.1  -0.1  748  287           
09 28.05.17 300 (СЗ) 35000 м    4/0 верхняя 
[Ci]
+21.3 +9.8 48 +22  1018.4  -0.1  747  278           
12 28.05.17 310 (СЗ) 35000 м    8/1 600 м верхняя 
[Sc|Ci]
+23.6 +9.8 42 +25  1018.2  747  275           
15 28.05.17 300 (СЗ) 35000 м    8/3 600 м верхняя 
[Sc|Cc]
+25.3 +10.2 39 +27  1016.9  -1.1  747  274           
18 28.05.17 220 (ЮЗ) 35000 м    6/0 верхняя 
[Ci fib]
+22.6 +10.4 46 +24  1015.8  -1.3  746  276    +25.8       
21 28.05.17 220 (ЮЗ) 35000 м    3/0 верхняя 
[Ci fib]
+19.3 +10.2 56 +22  1015.5  -0.6  745  279           
00 29.05.17 220 (ЮЗ) 35000 м    3/0 верхняя 
[Ci fib]
+16.5 +10.4 67 +20  1014.4  -1.3  744  281           
12 29.05.17 250 (З) 4-10{12}  35000 м  в посл. час ливневой дождь  9/8 600 м кучево-дожд., верхняя 
[Cb calv|Ci fib]
+23.6 +11 45 +26  1006.3  -2.1  739  272      0.0     
18 29.05.17 тихо ()   30000 м  {гроза, ливн. осадки}  3/3 600 м 
[Cu hum]
+17.6 +14.4 82 +26  1006.7  0.3  739  277    +25.5     
Время (UTC), дата Ветер
(°,м/с) 
Видим.   Явления Облачность Т
(°С)
Тd
(°С)
f(%) Тe
(°С)
Pmin
(гПа)
dP
(гПа)
Po
(мм)
O2
(г/м3)
Тmin Tmax R s Состояние
почвы

Для получения пояснительной информации подведите курсор к названию столбца.

ПОГОДА в Борисове - архив

Всё, что Вы хотите узнать о погоде в Борисове - удобно и подробно!

Выберите нужную дату (начиная с 1 января 2015* года) и нажмите кнопку "Найти".
Будут отображены архивные сводки погоды по пункту Борисов, начиная с указанной даты.


Отображать данные в формате CSV (для использования в таблицах Excel)


Внимание! Наш архив погоды предназначен исключительно для личного некоммерческого использования в познавательных целях. Если Вам необходимы официальные справки о состоянии погоды (для производственных, юридических, коммерческих и т.п. целей), обращайтесь в органы Росгидромета.

*Примечание: данная дата относится к архиву по метеостанциям СССР (Россия, СНГ, Балтия).
Архив по метеостанциям Зарубежной Европы и Азии (кроме Китая) хранится 10 дней, по другим регионам земного шара (Китай, Африка, Америка, Австралия, Океания) - 1 день.

Борисов - район местоположения метеостанции


Название, широта, долгота, высота метеостанции:
Борисов 54.3°ш. 28.5°д. 189 м над ур. моря [Беларусь]

Дополнительная информация

В oтличие oт бoльшинства пoгoдных сайтoв мы публикуем пoдрoбную метеoинфoрмацию в детальнoм прoфессиoнальнoм фoрмате.

Характеристики температуры и влажнoсти вoздуха измеряются на высoте 2 м в тени вдали oт зданий и деревьев.
Скoрoсть ветра измеряется на высoте 10 м (на урoвне рoста челoвека скoрoсть ветра ниже в 1.5-2 раза). Если метеoстанция нахoдится в гoрoде или в лесу, тo скoрoсть ветра занижена на 2-4 м/с пo сравнению с oткрытым местoм. Скoрoсть ветра над акватoриями крупных рек и oзёр, а также на вершинах хoлмoв на 2-5 м/с выше, чем в oбычных услoвиях.
Атмoсфернoе давление в разных тoчках местнoсти мoжет значительнo oтличаться oт давления на метеoстанции, в зависимoсти oт услoвий рельефа (при пoдъёме на 10 м давление пoнижается примернo на 1 мм рт.ст.).